Time,TemperatureF,DewpointF,PressureIn,WindDirection,WindDirectionDegrees,WindSpeedMPH,WindSpeedGustMPH,Humidity,HourlyPrecipIn,Conditions,Clouds,dailyrainin,SoftwareType,DateUTC
2013-03-31 00:04:00,56.6,45.8,29.93,NNW,329,5.0,6.0,67,0.00,,,0.00,Wunderground v.1.15,2013-03-31 07:04:00,
2013-03-31 00:10:00,56.4,46.0,29.93,WNW,296,4.0,5.0,68,0.00,,,0.00,Wunderground v.1.15,2013-03-31 07:10:00,
2013-03-31 00:15:00,56.4,45.6,29.93,WNW,299,5.0,5.0,67,0.00,,,0.00,Wunderground v.1.15,2013-03-31 07:15:00,
2013-03-31 00:22:00,56.2,45.8,29.93,WNW,284,4.0,7.0,68,0.00,,,0.00,Wunderground v.1.15,2013-03-31 07:22:00,
2013-03-31 00:28:00,56.1,45.3,29.93,NW,304,4.0,7.0,67,0.00,,,0.00,Wunderground v.1.15,2013-03-31 07:28:00,
2013-03-31 00:34:00,55.8,45.4,29.93,NW,324,4.0,4.0,68,0.00,,,0.00,Wunderground v.1.15,2013-03-31 07:34:00,
2013-03-31 00:40:00,55.6,45.2,29.93,NW,304,3.0,6.0,68,0.00,,,0.00,Wunderground v.1.15,2013-03-31 07:40:00,
2013-03-31 00:46:00,55.3,45.3,29.93,WNW,299,4.0,6.0,69,0.00,,,0.00,Wunderground v.1.15,2013-03-31 07:46:00,
2013-03-31 00:52:00,55.2,45.2,29.93,NW,313,4.0,4.0,69,0.00,,,0.00,Wunderground v.1.15,2013-03-31 07:52:00,
2013-03-31 00:58:00,55.1,45.1,29.93,NW,318,3.0,4.0,69,0.00,,,0.00,Wunderground v.1.15,2013-03-31 07:58:00,
2013-03-31 01:04:00,54.8,44.8,29.93,NW,306,3.0,3.0,69,0.00,,,0.00,Wunderground v.1.15,2013-03-31 08:04:00,
2013-03-31 01:10:00,54.5,44.9,29.93,WNW,291,4.0,11.0,70,0.00,,,0.00,Wunderground v.1.15,2013-03-31 08:10:00,
2013-03-31 01:16:00,54.4,44.8,29.93,NW,321,4.0,11.0,70,0.00,,,0.00,Wunderground v.1.15,2013-03-31 08:16:00,
2013-03-31 01:22:00,54.1,44.5,29.93,NW,315,4.0,4.0,70,0.00,,,0.00,Wunderground v.1.15,2013-03-31 08:22:00,
2013-03-31 01:28:00,53.9,44.7,29.93,NW,307,3.0,4.0,71,0.00,,,0.00,Wunderground v.1.15,2013-03-31 08:28:00,
2013-03-31 01:34:00,53.6,44.4,29.93,WNW,300,4.0,6.0,71,0.00,,,0.00,Wunderground v.1.15,2013-03-31 08:34:00,
2013-03-31 01:40:00,53.5,44.3,29.93,West,278,5.0,10.0,71,0.00,,,0.00,Wunderground v.1.15,2013-03-31 08:40:00,
2013-03-31 01:45:00,53.7,44.5,29.93,NW,309,6.0,10.0,71,0.00,,,0.00,Wunderground v.1.15,2013-03-31 08:45:00,
2013-03-31 01:52:00,53.7,44.5,29.93,NW,313,5.0,6.0,71,0.00,,,0.00,Wunderground v.1.15,2013-03-31 08:52:00,
2013-03-31 01:58:00,53.5,44.3,29.93,NW,304,5.0,8.0,71,0.00,,,0.00,Wunderground v.1.15,2013-03-31 08:58:00,
2013-03-31 02:04:00,53.3,44.1,29.93,NW,307,5.0,7.0,71,0.00,,,0.00,Wunderground v.1.15,2013-03-31 09:04:00,
2013-03-31 02:10:00,53.0,44.2,29.93,NW,309,4.0,5.0,72,0.00,,,0.00,Wunderground v.1.15,2013-03-31 09:10:00,
2013-03-31 02:16:00,52.8,44.0,29.93,NW,307,4.0,5.0,72,0.00,,,0.00,Wunderground v.1.15,2013-03-31 09:16:00,
2013-03-31 02:22:00,52.7,43.9,29.93,WNW,303,5.0,7.0,72,0.00,,,0.00,Wunderground v.1.15,2013-03-31 09:22:00,
2013-03-31 02:28:00,52.4,44.0,29.93,NW,320,5.0,9.0,73,0.00,,,0.00,Wunderground v.1.15,2013-03-31 09:28:00,
2013-03-31 02:34:00,52.3,43.9,29.93,WNW,294,5.0,5.0,73,0.00,,,0.00,Wunderground v.1.15,2013-03-31 09:34:00,
2013-03-31 02:40:00,52.2,43.8,29.93,NW,321,6.0,6.0,73,0.00,,,0.00,Wunderground v.1.15,2013-03-31 09:40:00,
2013-03-31 02:46:00,52.0,43.6,29.93,NW,304,5.0,8.0,73,0.00,,,0.00,Wunderground v.1.15,2013-03-31 09:46:00,
2013-03-31 02:52:00,51.9,43.9,29.93,WNW,303,4.0,4.0,74,0.00,,,0.00,Wunderground v.1.15,2013-03-31 09:52:00,
2013-03-31 02:58:00,52.0,44.0,29.93,WNW,295,4.0,4.0,74,0.00,,,0.00,Wunderground v.1.15,2013-03-31 09:58:00,
2013-03-31 03:04:00,52.0,43.6,29.92,NW,314,5.0,5.0,73,0.00,,,0.00,Wunderground v.1.15,2013-03-31 10:04:00,
2013-03-31 03:10:00,52.0,44.0,29.92,NW,321,4.0,4.0,74,0.00,,,0.00,Wunderground v.1.15,2013-03-31 10:10:00,
2013-03-31 03:16:00,52.0,44.0,29.92,WNW,292,4.0,5.0,74,0.00,,,0.00,Wunderground v.1.15,2013-03-31 10:16:00,
2013-03-31 03:22:00,52.1,43.7,29.92,NW,310,5.0,6.0,73,0.00,,,0.00,Wunderground v.1.15,2013-03-31 10:22:00,
2013-03-31 03:28:00,52.0,44.0,29.92,WNW,296,5.0,6.0,74,0.00,,,0.00,Wunderground v.1.15,2013-03-31 10:28:00,
2013-03-31 03:34:00,51.8,43.8,29.92,NW,319,4.0,5.0,74,0.00,,,0.00,Wunderground v.1.15,2013-03-31 10:34:00,
2013-03-31 03:40:00,51.7,43.7,29.92,NW,304,4.0,4.0,74,0.00,,,0.00,Wunderground v.1.15,2013-03-31 10:40:00,
2013-03-31 03:46:00,51.6,43.6,29.92,WNW,303,4.0,4.0,74,0.00,,,0.00,Wunderground v.1.15,2013-03-31 10:46:00,
2013-03-31 03:52:00,51.5,43.5,29.92,NNW,328,4.0,5.0,74,0.00,,,0.00,Wunderground v.1.15,2013-03-31 10:52:00,
2013-03-31 03:58:00,51.4,43.7,29.92,NNW,330,4.0,5.0,75,0.00,,,0.00,Wunderground v.1.15,2013-03-31 10:58:00,
2013-03-31 04:04:00,51.3,43.6,29.92,NW,310,4.0,6.0,75,0.00,,,0.00,Wunderground v.1.15,2013-03-31 11:04:00,
2013-03-31 04:12:00,51.0,43.7,29.92,NW,317,4.0,4.0,76,0.00,,,0.00,Wunderground v.1.15,2013-03-31 11:12:00,
2013-03-31 04:18:00,51.0,43.7,29.92,NNW,327,4.0,5.0,76,0.00,,,0.00,Wunderground v.1.15,2013-03-31 11:18:00,
2013-03-31 04:24:00,51.0,43.7,29.92,NNW,327,4.0,5.0,76,0.00,,,0.00,Wunderground v.1.15,2013-03-31 11:24:00,
2013-03-31 04:30:00,50.9,43.6,29.92,NW,319,4.0,5.0,76,0.00,,,0.00,Wunderground v.1.15,2013-03-31 11:30:00,
2013-03-31 04:36:00,50.9,43.6,29.92,NW,316,4.0,7.0,76,0.00,,,0.00,Wunderground v.1.15,2013-03-31 11:36:00,
2013-03-31 04:42:00,50.8,43.5,29.92,WNW,300,5.0,5.0,76,0.00,,,0.00,Wunderground v.1.15,2013-03-31 11:42:00,
2013-03-31 04:48:00,50.7,43.8,29.92,NW,312,4.0,5.0,77,0.00,,,0.00,Wunderground v.1.15,2013-03-31 11:48:00,
2013-03-31 04:54:00,50.6,43.7,29.92,NNW,338,4.0,4.0,77,0.00,,,0.00,Wunderground v.1.15,2013-03-31 11:54:00,
2013-03-31 05:00:00,50.4,43.5,29.92,NW,324,3.0,3.0,77,0.00,,,0.00,Wunderground v.1.15,2013-03-31 12:00:00,
2013-03-31 05:06:00,50.3,43.4,29.92,NW,325,3.0,5.0,77,0.00,,,0.00,Wunderground v.1.15,2013-03-31 12:06:00,
2013-03-31 05:12:00,50.1,43.5,29.92,NW,310,3.0,4.0,78,0.00,,,0.00,Wunderground v.1.15,2013-03-31 12:12:00,
2013-03-31 05:18:00,49.9,43.3,29.92,West,260,3.0,4.0,78,0.00,,,0.00,Wunderground v.1.15,2013-03-31 12:18:00,
2013-03-31 05:24:00,49.7,43.1,29.93,NW,317,3.0,3.0,78,0.00,,,0.00,Wunderground v.1.15,2013-03-31 12:24:00,
2013-03-31 05:30:00,49.6,43.4,29.93,NW,315,2.0,2.0,79,0.00,,,0.00,Wunderground v.1.15,2013-03-31 12:30:00,
2013-03-31 05:36:00,49.3,43.1,29.93,NW,315,2.0,2.0,79,0.00,,,0.00,Wunderground v.1.15,2013-03-31 12:36:00,
2013-03-31 05:42:00,49.0,43.1,29.93,NW,316,1.0,1.0,80,0.00,,,0.00,Wunderground v.1.15,2013-03-31 12:42:00,
2013-03-31 05:48:00,49.0,43.1,29.93,NW,316,1.0,1.0,80,0.00,,,0.00,Wunderground v.1.15,2013-03-31 12:48:00,
2013-03-31 05:54:00,49.0,43.1,29.93,NW,315,0.0,1.0,80,0.00,,,0.00,Wunderground v.1.15,2013-03-31 12:54:00,
2013-03-31 06:00:00,48.9,43.0,29.93,NW,316,0.0,0.0,80,0.00,,,0.00,Wunderground v.1.15,2013-03-31 13:00:00,
2013-03-31 06:06:00,48.7,42.8,29.93,NW,316,0.0,1.0,80,0.00,,,0.00,Wunderground v.1.15,2013-03-31 13:06:00,
2013-03-31 06:12:00,48.6,42.7,29.93,NW,316,1.0,3.0,80,0.00,,,0.00,Wunderground v.1.15,2013-03-31 13:12:00,
2013-03-31 06:18:00,48.5,42.6,29.94,NW,314,1.0,3.0,80,0.00,,,0.00,Wunderground v.1.15,2013-03-31 13:18:00,
2013-03-31 06:23:00,48.3,42.7,29.93,NW,314,1.0,1.0,81,0.00,,,0.00,Wunderground v.1.15,2013-03-31 13:23:00,
2013-03-31 06:30:00,48.1,42.5,29.94,NW,315,1.0,2.0,81,0.00,,,0.00,Wunderground v.1.15,2013-03-31 13:30:00,
2013-03-31 06:37:00,47.7,42.5,29.94,NW,314,2.0,3.0,82,0.00,,,0.00,Wunderground v.1.15,2013-03-31 13:37:00,
2013-03-31 06:44:00,47.5,42.3,29.94,NW,314,2.0,2.0,82,0.00,,,0.00,Wunderground v.1.15,2013-03-31 13:44:00,
2013-03-31 06:50:00,47.3,42.4,29.94,NW,315,2.0,3.0,83,0.00,,,0.00,Wunderground v.1.15,2013-03-31 13:50:00,
2013-03-31 06:56:00,47.2,42.3,29.94,NW,306,3.0,6.0,83,0.00,,,0.00,Wunderground v.1.15,2013-03-31 13:56:00,
2013-03-31 07:02:00,47.1,42.2,29.94,NW,310,4.0,4.0,83,0.00,,,0.00,Wunderground v.1.15,2013-03-31 14:02:00,
2013-03-31 07:08:00,47.2,42.6,29.94,WNW,300,5.0,6.0,84,0.00,,,0.00,Wunderground v.1.15,2013-03-31 14:08:00,
2013-03-31 07:14:00,47.3,42.4,29.95,NW,317,5.0,5.0,83,0.00,,,0.00,Wunderground v.1.15,2013-03-31 14:14:00,
2013-03-31 07:20:00,47.3,42.4,29.95,NW,309,3.0,3.0,83,0.00,,,0.00,Wunderground v.1.15,2013-03-31 14:20:00,
2013-03-31 07:26:00,47.2,42.3,29.95,NW,310,2.0,4.0,83,0.00,,,0.00,Wunderground v.1.15,2013-03-31 14:26:00,
2013-03-31 07:32:00,47.2,42.3,29.95,WNW,292,3.0,6.0,83,0.00,,,0.00,Wunderground v.1.15,2013-03-31 14:32:00,
2013-03-31 07:38:00,47.3,42.7,29.95,NW,313,4.0,6.0,84,0.00,,,0.00,Wunderground v.1.15,2013-03-31 14:38:00,
2013-03-31 07:44:00,47.5,42.6,29.95,NW,311,5.0,6.0,83,0.00,,,0.00,Wunderground v.1.15,2013-03-31 14:44:00,
2013-03-31 07:50:00,47.9,43.0,29.95,NW,308,4.0,6.0,83,0.00,,,0.00,Wunderground v.1.15,2013-03-31 14:50:00,
2013-03-31 07:56:00,48.3,43.4,29.95,NW,306,4.0,6.0,83,0.00,,,0.00,Wunderground v.1.15,2013-03-31 14:56:00,
2013-03-31 08:02:00,48.9,43.6,29.95,NNW,341,5.0,5.0,82,0.00,,,0.00,Wunderground v.1.15,2013-03-31 15:02:00,
2013-03-31 08:08:00,49.7,44.1,29.95,NNW,340,2.0,5.0,81,0.00,,,0.00,Wunderground v.1.15,2013-03-31 15:08:00,
2013-03-31 08:14:00,50.5,44.6,29.95,NNW,340,1.0,1.0,80,0.00,,,0.00,Wunderground v.1.15,2013-03-31 15:14:00,
2013-03-31 08:20:00,51.1,44.5,29.95,NNW,338,1.0,3.0,78,0.00,,,0.00,Wunderground v.1.15,2013-03-31 15:20:00,
2013-03-31 08:26:00,51.7,44.7,29.95,NNW,334,1.0,3.0,77,0.00,,,0.00,Wunderground v.1.15,2013-03-31 15:26:00,
2013-03-31 08:32:00,52.9,45.2,29.95,NNW,335,1.0,1.0,75,0.00,,,0.00,Wunderground v.1.15,2013-03-31 15:32:00,
2013-03-31 08:38:00,53.0,45.3,29.95,NNW,344,0.0,2.0,75,0.00,,,0.00,Wunderground v.1.15,2013-03-31 15:38:00,
2013-03-31 08:44:00,53.6,45.5,29.95,NNW,344,0.0,0.0,74,0.00,,,0.00,Wunderground v.1.15,2013-03-31 15:44:00,
2013-03-31 08:50:00,55.8,46.5,29.95,NNW,344,0.0,0.0,71,0.00,,,0.00,Wunderground v.1.15,2013-03-31 15:50:00,
2013-03-31 08:56:00,56.9,46.8,29.95,NNW,344,0.0,0.0,69,0.00,,,0.00,Wunderground v.1.15,2013-03-31 15:56:00,
2013-03-31 09:02:00,56.4,46.4,29.95,NNW,344,0.0,0.0,69,0.00,,,0.00,Wunderground v.1.15,2013-03-31 16:02:00,
2013-03-31 09:08:00,56.0,46.0,29.95,NNW,344,0.0,1.0,69,0.00,,,0.00,Wunderground v.1.15,2013-03-31 16:08:00,
2013-03-31 09:14:00,55.3,46.1,29.95,NNW,344,0.0,1.0,71,0.00,,,0.00,Wunderground v.1.15,2013-03-31 16:14:00,
2013-03-31 09:20:00,56.4,45.6,29.95,NNW,344,0.0,0.0,67,0.00,,,0.00,Wunderground v.1.15,2013-03-31 16:20:00,
2013-03-31 09:26:00,55.6,45.6,29.95,NNW,344,1.0,2.0,69,0.00,,,0.00,Wunderground v.1.15,2013-03-31 16:26:00,
2013-03-31 09:32:00,57.6,46.3,29.95,North,355,1.0,1.0,66,0.00,,,0.00,Wunderground v.1.15,2013-03-31 16:32:00,
2013-03-31 09:38:00,58.2,46.5,29.95,North,355,1.0,3.0,65,0.00,,,0.00,Wunderground v.1.15,2013-03-31 16:38:00,
2013-03-31 09:44:00,58.1,46.0,29.95,NE,42,1.0,2.0,64,0.00,,,0.00,Wunderground v.1.15,2013-03-31 16:44:00,
2013-03-31 09:50:00,58.6,46.0,29.95,ENE,57,1.0,1.0,63,0.00,,,0.00,Wunderground v.1.15,2013-03-31 16:50:00,
2013-03-31 09:56:00,58.4,45.8,29.95,SE,127,2.0,5.0,63,0.00,,,0.00,Wunderground v.1.15,2013-03-31 16:56:00,
2013-03-31 10:02:00,59.3,46.3,29.95,SE,126,2.0,2.0,62,0.00,,,0.00,Wunderground v.1.15,2013-03-31 17:02:00,
2013-03-31 10:08:00,58.9,46.3,29.95,SSW,192,1.0,5.0,63,0.00,,,0.00,Wunderground v.1.15,2013-03-31 17:08:00,
2013-03-31 10:13:00,59.4,46.4,29.95,South,184,2.0,2.0,62,0.00,,,0.00,Wunderground v.1.15,2013-03-31 17:13:00,
2013-03-31 10:20:00,58.5,45.9,29.95,SE,136,2.0,2.0,63,0.00,,,0.00,Wunderground v.1.15,2013-03-31 17:20:00,
2013-03-31 10:26:00,58.7,46.5,29.95,SSE,155,2.0,3.0,64,0.00,,,0.00,Wunderground v.1.15,2013-03-31 17:26:00,
2013-03-31 10:32:00,60.1,47.0,29.95,SSE,157,1.0,1.0,62,0.00,,,0.00,Wunderground v.1.15,2013-03-31 17:32:00,
2013-03-31 10:38:00,60.2,46.7,29.95,SSE,157,1.0,2.0,61,0.00,,,0.00,Wunderground v.1.15,2013-03-31 17:38:00,
2013-03-31 10:44:00,61.7,47.7,29.95,SSE,157,1.0,3.0,60,0.00,,,0.00,Wunderground v.1.15,2013-03-31 17:44:00,
2013-03-31 10:50:00,60.1,47.0,29.95,SSE,167,1.0,1.0,62,0.00,,,0.00,Wunderground v.1.15,2013-03-31 17:50:00,
2013-03-31 10:56:00,60.8,47.3,29.95,South,172,2.0,3.0,61,0.00,,,0.00,Wunderground v.1.15,2013-03-31 17:56:00,
2013-03-31 11:02:00,60.3,47.2,29.95,SSW,194,3.0,3.0,62,0.00,,,0.00,Wunderground v.1.15,2013-03-31 18:02:00,
2013-03-31 11:08:00,61.7,48.1,29.95,SSW,194,2.0,3.0,61,0.00,,,0.00,Wunderground v.1.15,2013-03-31 18:08:00,
2013-03-31 11:14:00,62.0,48.0,29.95,SW,214,2.0,4.0,60,0.00,,,0.00,Wunderground v.1.15,2013-03-31 18:14:00,
2013-03-31 11:20:00,63.0,48.9,29.95,West,267,2.0,2.0,60,0.00,,,0.00,Wunderground v.1.15,2013-03-31 18:20:00,
2013-03-31 11:26:00,64.5,49.4,29.95,SW,215,1.0,2.0,58,0.00,,,0.00,Wunderground v.1.15,2013-03-31 18:26:00,
2013-03-31 11:32:00,63.7,49.1,29.94,SSW,209,2.0,2.0,59,0.00,,,0.00,Wunderground v.1.15,2013-03-31 18:32:00,
2013-03-31 11:38:00,64.1,48.5,29.94,South,178,2.0,2.0,57,0.00,,,0.00,Wunderground v.1.15,2013-03-31 18:38:00,
2013-03-31 11:44:00,64.3,48.7,29.94,SE,137,2.0,4.0,57,0.00,,,0.00,Wunderground v.1.15,2013-03-31 18:44:00,
2013-03-31 11:50:00,63.8,49.2,29.94,SSW,192,2.0,3.0,59,0.00,,,0.00,Wunderground v.1.15,2013-03-31 18:50:00,
2013-03-31 11:55:00,65.3,49.7,29.94,SSW,197,2.0,3.0,57,0.00,,,0.00,Wunderground v.1.15,2013-03-31 18:55:00,
2013-03-31 12:02:00,65.3,48.7,29.94,SSW,195,2.0,3.0,55,0.00,,,0.00,Wunderground v.1.15,2013-03-31 19:02:00,
2013-03-31 12:08:00,64.9,48.3,29.94,SSW,194,2.0,4.0,55,0.00,,,0.00,Wunderground v.1.15,2013-03-31 19:08:00,
2013-03-31 12:14:00,65.0,47.9,29.93,SE,144,2.0,2.0,54,0.00,,,0.00,Wunderground v.1.15,2013-03-31 19:14:00,
2013-03-31 12:20:00,66.7,49.0,29.93,South,179,1.0,1.0,53,0.00,,,0.00,Wunderground v.1.15,2013-03-31 19:20:00,
2013-03-31 12:25:00,66.4,48.7,29.93,SSE,157,2.0,5.0,53,0.00,,,0.00,Wunderground v.1.15,2013-03-31 19:25:00,
2013-03-31 12:32:00,66.7,48.5,29.93,SE,140,2.0,4.0,52,0.00,,,0.00,Wunderground v.1.15,2013-03-31 19:32:00,
2013-03-31 12:38:00,67.1,49.4,29.92,SE,140,2.0,4.0,53,0.00,,,0.00,Wunderground v.1.15,2013-03-31 19:38:00,
2013-03-31 12:44:00,66.9,49.2,29.92,SSW,196,2.0,6.0,53,0.00,,,0.00,Wunderground v.1.15,2013-03-31 19:44:00,
2013-03-31 12:50:00,67.6,47.8,29.92,South,173,3.0,3.0,49,0.00,,,0.00,Wunderground v.1.15,2013-03-31 19:50:00,
2013-03-31 12:56:00,68.1,48.8,29.92,SSW,200,3.0,4.0,50,0.00,,,0.00,Wunderground v.1.15,2013-03-31 19:56:00,
2013-03-31 13:01:00,68.3,48.4,29.92,SSW,211,3.0,3.0,49,0.00,,,0.00,Wunderground v.1.15,2013-03-31 20:01:00,
2013-03-31 13:08:00,69.6,49.0,29.92,SSW,196,2.0,5.0,48,0.00,,,0.00,Wunderground v.1.15,2013-03-31 20:08:00,
2013-03-31 13:14:00,68.6,47.0,29.91,South,173,2.0,4.0,46,0.00,,,0.00,Wunderground v.1.15,2013-03-31 20:14:00,
2013-03-31 13:20:00,67.9,47.5,29.91,SW,236,2.0,2.0,48,0.00,,,0.00,Wunderground v.1.15,2013-03-31 20:20:00,
2013-03-31 13:26:00,68.0,49.2,29.91,South,178,3.0,3.0,51,0.00,,,0.00,Wunderground v.1.15,2013-03-31 20:26:00,
2013-03-31 13:32:00,68.8,49.4,29.90,South,178,3.0,5.0,50,0.00,,,0.00,Wunderground v.1.15,2013-03-31 20:32:00,
2013-03-31 13:38:00,69.3,49.3,29.90,SW,226,2.0,5.0,49,0.00,,,0.00,Wunderground v.1.15,2013-03-31 20:38:00,
2013-03-31 13:44:00,69.6,49.0,29.90,WSW,237,2.0,3.0,48,0.00,,,0.00,Wunderground v.1.15,2013-03-31 20:44:00,
2013-03-31 13:50:00,70.6,48.2,29.89,South,190,2.0,2.0,45,0.00,,,0.00,Wunderground v.1.15,2013-03-31 20:50:00,
2013-03-31 13:56:00,70.3,46.7,29.89,SW,221,2.0,6.0,43,0.00,,,0.00,Wunderground v.1.15,2013-03-31 20:56:00,
2013-03-31 14:02:00,71.7,48.0,29.89,SSW,196,2.0,5.0,43,0.00,,,0.00,Wunderground v.1.15,2013-03-31 21:02:00,
2013-03-31 14:08:00,71.7,46.7,29.89,South,186,1.0,5.0,41,0.00,,,0.00,Wunderground v.1.15,2013-03-31 21:08:00,
2013-03-31 14:14:00,71.0,48.0,29.88,SE,136,1.0,4.0,44,0.00,,,0.00,Wunderground v.1.15,2013-03-31 21:14:00,
2013-03-31 14:20:00,71.1,47.5,29.88,SE,133,2.0,2.0,43,0.00,,,0.00,Wunderground v.1.15,2013-03-31 21:20:00,
2013-03-31 14:25:00,71.3,47.6,29.88,SSW,196,2.0,5.0,43,0.00,,,0.00,Wunderground v.1.15,2013-03-31 21:25:00,
2013-03-31 14:32:00,71.8,48.1,29.88,SE,144,2.0,2.0,43,0.00,,,0.00,Wunderground v.1.15,2013-03-31 21:32:00,
2013-03-31 14:38:00,72.5,48.1,29.88,SSW,198,1.0,3.0,42,0.00,,,0.00,Wunderground v.1.15,2013-03-31 21:38:00,
2013-03-31 14:44:00,72.4,48.0,29.87,SSW,211,3.0,3.0,42,0.00,,,0.00,Wunderground v.1.15,2013-03-31 21:44:00,
2013-03-31 14:50:00,73.1,48.6,29.87,SSW,194,3.0,3.0,42,0.00,,,0.00,Wunderground v.1.15,2013-03-31 21:50:00,
2013-03-31 14:56:00,73.9,49.4,29.87,SSE,149,2.0,3.0,42,0.00,,,0.00,Wunderground v.1.15,2013-03-31 21:56:00,
2013-03-31 15:02:00,74.3,50.4,29.86,SE,144,2.0,4.0,43,0.00,,,0.00,Wunderground v.1.15,2013-03-31 22:02:00,
2013-03-31 15:08:00,74.0,49.4,29.87,South,175,3.0,4.0,42,0.00,,,0.00,Wunderground v.1.15,2013-03-31 22:08:00,
2013-03-31 15:14:00,73.7,49.2,29.86,SSE,161,3.0,4.0,42,0.00,,,0.00,Wunderground v.1.15,2013-03-31 22:14:00,
2013-03-31 15:20:00,73.8,49.3,29.86,South,172,3.0,3.0,42,0.00,,,0.00,Wunderground v.1.15,2013-03-31 22:20:00,
2013-03-31 15:26:00,73.6,47.8,29.86,SSW,196,3.0,5.0,40,0.00,,,0.00,Wunderground v.1.15,2013-03-31 22:26:00,
2013-03-31 15:32:00,74.6,48.7,29.85,SSW,203,3.0,3.0,40,0.00,,,0.00,Wunderground v.1.15,2013-03-31 22:32:00,
2013-03-31 15:37:00,75.0,48.4,29.85,South,184,2.0,3.0,39,0.00,,,0.00,Wunderground v.1.15,2013-03-31 22:37:00,
2013-03-31 15:44:00,75.2,49.2,29.85,South,184,2.0,3.0,40,0.00,,,0.00,Wunderground v.1.15,2013-03-31 22:44:00,
2013-03-31 15:50:00,74.9,47.6,29.85,South,189,2.0,3.0,38,0.00,,,0.00,Wunderground v.1.15,2013-03-31 22:50:00,
2013-03-31 15:56:00,74.3,49.7,29.85,SSW,193,3.0,4.0,42,0.00,,,0.00,Wunderground v.1.15,2013-03-31 22:56:00,
2013-03-31 16:02:00,75.3,47.2,29.84,SW,228,3.0,4.0,37,0.00,,,0.00,Wunderground v.1.15,2013-03-31 23:02:00,
2013-03-31 16:08:00,75.2,46.4,29.84,SW,217,3.0,6.0,36,0.00,,,0.00,Wunderground v.1.15,2013-03-31 23:08:00,
2013-03-31 16:14:00,75.4,47.3,29.84,SE,138,2.0,4.0,37,0.00,,,0.00,Wunderground v.1.15,2013-03-31 23:14:00,
2013-03-31 16:20:00,74.8,48.2,29.84,SSE,161,3.0,3.0,39,0.00,,,0.00,Wunderground v.1.15,2013-03-31 23:20:00,
2013-03-31 16:26:00,75.5,47.4,29.84,SSE,162,3.0,3.0,37,0.00,,,0.00,Wunderground v.1.15,2013-03-31 23:26:00,
2013-03-31 16:32:00,76.4,48.2,29.84,SW,217,2.0,3.0,37,0.00,,,0.00,Wunderground v.1.15,2013-03-31 23:32:00,
2013-03-31 16:38:00,75.8,47.7,29.84,SSE,165,2.0,3.0,37,0.00,,,0.00,Wunderground v.1.15,2013-03-31 23:38:00,
2013-03-31 16:44:00,75.6,47.5,29.83,SW,215,3.0,6.0,37,0.00,,,0.00,Wunderground v.1.15,2013-03-31 23:44:00,
2013-03-31 16:50:00,74.8,48.2,29.83,SW,225,5.0,6.0,39,0.00,,,0.00,Wunderground v.1.15,2013-03-31 23:50:00,
2013-03-31 16:56:00,75.4,47.3,29.83,SSW,203,4.0,7.0,37,0.00,,,0.00,Wunderground v.1.15,2013-03-31 23:56:00,
2013-03-31 17:02:00,75.6,46.8,29.83,SSE,158,4.0,4.0,36,0.00,,,0.00,Wunderground v.1.15,2013-04-01 00:02:00,
2013-03-31 17:08:00,75.9,47.0,29.83,South,188,2.0,4.0,36,0.00,,,0.00,Wunderground v.1.15,2013-04-01 00:08:00,
2013-03-31 17:14:00,76.7,47.7,29.83,South,191,2.0,3.0,36,0.00,,,0.00,Wunderground v.1.15,2013-04-01 00:14:00,
2013-03-31 17:20:00,76.2,47.3,29.83,SSW,205,2.0,3.0,36,0.00,,,0.00,Wunderground v.1.15,2013-04-01 00:20:00,
2013-03-31 17:26:00,75.5,47.4,29.83,SSE,154,2.0,3.0,37,0.00,,,0.00,Wunderground v.1.15,2013-04-01 00:26:00,
2013-03-31 17:32:00,76.4,47.5,29.83,SSE,165,2.0,3.0,36,0.00,,,0.00,Wunderground v.1.15,2013-04-01 00:32:00,
2013-03-31 17:38:00,75.9,47.0,29.83,SSW,193,2.0,5.0,36,0.00,,,0.00,Wunderground v.1.15,2013-04-01 00:38:00,
2013-03-31 17:44:00,76.2,47.3,29.83,SSE,158,2.0,3.0,36,0.00,,,0.00,Wunderground v.1.15,2013-04-01 00:44:00,
2013-03-31 17:50:00,76.2,48.0,29.83,South,175,2.0,4.0,37,0.00,,,0.00,Wunderground v.1.15,2013-04-01 00:50:00,
2013-03-31 17:56:00,76.0,49.2,29.83,SSE,160,2.0,4.0,39,0.00,,,0.00,Wunderground v.1.15,2013-04-01 00:56:00,
2013-03-31 18:02:00,75.3,50.0,29.83,SSE,160,2.0,2.0,41,0.00,,,0.00,Wunderground v.1.15,2013-04-01 01:02:00,
2013-03-31 18:08:00,75.1,49.8,29.83,South,175,1.0,2.0,41,0.00,,,0.00,Wunderground v.1.15,2013-04-01 01:08:00,
2013-03-31 18:14:00,75.6,50.9,29.83,South,181,1.0,2.0,42,0.00,,,0.00,Wunderground v.1.15,2013-04-01 01:14:00,
2013-03-31 18:20:00,75.1,50.4,29.83,SSE,165,2.0,2.0,42,0.00,,,0.00,Wunderground v.1.15,2013-04-01 01:20:00,
2013-03-31 18:26:00,74.4,49.8,29.83,SSE,165,1.0,2.0,42,0.00,,,0.00,Wunderground v.1.15,2013-04-01 01:26:00,
2013-03-31 18:32:00,74.2,50.3,29.83,SSE,165,1.0,2.0,43,0.00,,,0.00,Wunderground v.1.15,2013-04-01 01:32:00,
2013-03-31 18:38:00,74.0,50.7,29.83,SSE,160,1.0,3.0,44,0.00,,,0.00,Wunderground v.1.15,2013-04-01 01:38:00,
2013-03-31 18:44:00,73.8,49.9,29.83,SSE,159,2.0,2.0,43,0.00,,,0.00,Wunderground v.1.15,2013-04-01 01:44:00,
2013-03-31 18:50:00,73.5,49.6,29.83,SSE,159,1.0,2.0,43,0.00,,,0.00,Wunderground v.1.15,2013-04-01 01:50:00,
2013-03-31 18:56:00,73.3,49.4,29.83,SSE,159,1.0,2.0,43,0.00,,,0.00,Wunderground v.1.15,2013-04-01 01:56:00,
2013-03-31 19:02:00,73.0,49.8,29.83,SSE,159,1.0,1.0,44,0.00,,,0.00,Wunderground v.1.15,2013-04-01 02:02:00,
2013-03-31 19:08:00,72.4,50.4,29.84,SSW,203,0.0,3.0,46,0.00,,,0.00,Wunderground v.1.15,2013-04-01 02:08:00,
2013-03-31 19:14:00,71.0,51.4,29.84,West,278,2.0,7.0,50,0.00,,,0.00,Wunderground v.1.15,2013-04-01 02:14:00,
2013-03-31 19:20:00,69.9,51.5,29.85,NE,45,3.0,3.0,52,0.00,,,0.00,Wunderground v.1.15,2013-04-01 02:20:00,
2013-03-31 19:26:00,68.7,50.9,29.85,WNW,298,3.0,10.0,53,0.00,,,0.00,Wunderground v.1.15,2013-04-01 02:26:00,
2013-03-31 19:32:00,67.8,51.0,29.85,NW,322,4.0,4.0,55,0.00,,,0.00,Wunderground v.1.15,2013-04-01 02:32:00,
2013-03-31 19:38:00,66.8,51.1,29.85,NW,304,4.0,4.0,57,0.00,,,0.00,Wunderground v.1.15,2013-04-01 02:38:00,
2013-03-31 19:44:00,65.9,51.2,29.86,NW,321,3.0,7.0,59,0.00,,,0.00,Wunderground v.1.15,2013-04-01 02:44:00,
2013-03-31 19:50:00,65.2,51.0,29.86,WNW,295,3.0,3.0,60,0.00,,,0.00,Wunderground v.1.15,2013-04-01 02:50:00,
2013-03-31 19:58:00,64.3,51.0,29.86,NW,307,2.0,3.0,62,0.00,,,0.00,Wunderground v.1.15,2013-04-01 02:58:00,
2013-03-31 20:04:00,63.7,50.4,29.86,NW,323,2.0,2.0,62,0.00,,,0.00,Wunderground v.1.15,2013-04-01 03:04:00,
2013-03-31 20:10:00,63.1,50.7,29.87,NNW,336,3.0,3.0,64,0.00,,,0.00,Wunderground v.1.15,2013-04-01 03:10:00,
2013-03-31 20:16:00,62.7,50.3,29.87,NW,319,2.0,3.0,64,0.00,,,0.00,Wunderground v.1.15,2013-04-01 03:16:00,
2013-03-31 20:22:00,62.2,50.3,29.87,NW,322,2.0,3.0,65,0.00,,,0.00,Wunderground v.1.15,2013-04-01 03:22:00,
2013-03-31 20:28:00,62.0,50.1,29.87,NW,322,3.0,4.0,65,0.00,,,0.00,Wunderground v.1.15,2013-04-01 03:28:00,
2013-03-31 20:34:00,61.8,49.9,29.88,NNW,332,4.0,7.0,65,0.00,,,0.00,Wunderground v.1.15,2013-04-01 03:34:00,
2013-03-31 20:40:00,61.6,50.1,29.88,NE,37,3.0,4.0,66,0.00,,,0.00,Wunderground v.1.15,2013-04-01 03:40:00,
2013-03-31 20:46:00,61.3,49.8,29.88,WNW,298,3.0,6.0,66,0.00,,,0.00,Wunderground v.1.15,2013-04-01 03:46:00,
2013-03-31 20:52:00,61.2,50.2,29.89,NE,46,3.0,4.0,67,0.00,,,0.00,Wunderground v.1.15,2013-04-01 03:52:00,
2013-03-31 20:58:00,60.8,49.8,29.89,NNW,336,2.0,4.0,67,0.00,,,0.00,Wunderground v.1.15,2013-04-01 03:58:00,
2013-03-31 21:00:00,60.7,49.7,29.89,NW,314,1.0,1.0,67,0.00,,,0.00,Wunderground v.1.15,2013-04-01 04:00:00,
2013-03-31 21:02:00,60.7,49.7,29.89,NW,312,1.0,1.0,67,0.00,,,0.00,Wunderground v.1.15,2013-04-01 04:02:00,
2013-03-31 21:04:00,60.6,50.0,29.89,North,355,1.0,3.0,68,0.00,,,0.00,Wunderground v.1.15,2013-04-01 04:04:00,
2013-03-31 21:10:00,60.3,50.1,29.90,North,349,1.0,1.0,69,0.00,,,0.00,Wunderground v.1.15,2013-04-01 04:10:00,
2013-03-31 21:12:00,60.2,49.6,29.90,North,355,1.0,2.0,68,0.00,,,0.00,Wunderground v.1.15,2013-04-01 04:12:00,
2013-03-31 21:18:00,59.9,49.7,29.90,North,9,1.0,3.0,69,0.00,,,0.00,Wunderground v.1.15,2013-04-01 04:18:00,
2013-03-31 21:22:00,59.7,49.9,29.90,North,360,1.0,2.0,70,0.00,,,0.00,Wunderground v.1.15,2013-04-01 04:22:00,
2013-03-31 21:28:00,59.4,49.6,29.90,North,355,1.0,2.0,70,0.00,,,0.00,Wunderground v.1.15,2013-04-01 04:28:00,
2013-03-31 21:34:00,59.0,49.2,29.90,North,9,1.0,1.0,70,0.00,,,0.00,Wunderground v.1.15,2013-04-01 04:34:00,
2013-03-31 21:40:00,58.8,49.4,29.91,North,9,0.0,1.0,71,0.00,,,0.00,Wunderground v.1.15,2013-04-01 04:40:00,
2013-03-31 21:46:00,58.2,48.8,29.91,North,9,1.0,2.0,71,0.00,,,0.00,Wunderground v.1.15,2013-04-01 04:46:00,
2013-03-31 21:52:00,57.4,48.4,29.92,North,9,1.0,2.0,72,0.00,,,0.00,Wunderground v.1.15,2013-04-01 04:52:00,
2013-03-31 21:58:00,56.9,48.3,29.92,North,9,1.0,2.0,73,0.00,,,0.00,Wunderground v.1.15,2013-04-01 04:58:00,
2013-03-31 22:04:00,56.5,48.3,29.92,North,9,1.0,1.0,74,0.00,,,0.00,Wunderground v.1.15,2013-04-01 05:04:00,
2013-03-31 22:10:00,55.9,48.1,29.92,North,9,0.0,0.0,75,0.00,,,0.00,Wunderground v.1.15,2013-04-01 05:10:00,
2013-03-31 22:16:00,55.3,47.9,29.92,North,9,0.0,0.0,76,0.00,,,0.00,Wunderground v.1.15,2013-04-01 05:16:00,
2013-03-31 22:22:00,55.0,47.9,29.93,North,9,0.0,0.0,77,0.00,,,0.00,Wunderground v.1.15,2013-04-01 05:22:00,
2013-03-31 22:28:00,54.5,47.8,29.93,North,9,1.0,2.0,78,0.00,,,0.00,Wunderground v.1.15,2013-04-01 05:28:00,
2013-03-31 22:34:00,54.2,47.5,29.93,North,10,1.0,2.0,78,0.00,,,0.00,Wunderground v.1.15,2013-04-01 05:34:00,
2013-03-31 22:40:00,53.9,47.5,29.93,North,355,2.0,2.0,79,0.00,,,0.00,Wunderground v.1.15,2013-04-01 05:40:00,
2013-03-31 22:46:00,53.5,47.1,29.94,NNE,12,2.0,2.0,79,0.00,,,0.00,Wunderground v.1.15,2013-04-01 05:46:00,
2013-03-31 22:52:00,53.2,47.2,29.94,NW,323,1.0,2.0,80,0.00,,,0.00,Wunderground v.1.15,2013-04-01 05:52:00,
2013-03-31 22:58:00,52.9,47.2,29.94,NNW,346,2.0,2.0,81,0.00,,,0.00,Wunderground v.1.15,2013-04-01 05:58:00,
2013-03-31 23:04:00,52.7,47.4,29.94,North,350,2.0,3.0,82,0.00,,,0.00,Wunderground v.1.15,2013-04-01 06:04:00,
2013-03-31 23:10:00,52.6,47.3,29.94,NW,318,2.0,5.0,82,0.00,,,0.00,Wunderground v.1.15,2013-04-01 06:10:00,
2013-03-31 23:16:00,52.6,47.3,29.94,NNW,345,1.0,5.0,82,0.00,,,0.00,Wunderground v.1.15,2013-04-01 06:16:00,
2013-03-31 23:22:00,52.7,47.4,29.94,WNW,303,1.0,4.0,82,0.00,,,0.00,Wunderground v.1.15,2013-04-01 06:22:00,
2013-03-31 23:28:00,52.8,47.5,29.94,NW,310,2.0,6.0,82,0.00,,,0.00,Wunderground v.1.15,2013-04-01 06:28:00,
2013-03-31 23:34:00,52.6,47.3,29.94,WNW,299,2.0,2.0,82,0.00,,,0.00,Wunderground v.1.15,2013-04-01 06:34:00,
2013-03-31 23:40:00,52.5,47.2,29.94,NW,307,1.0,1.0,82,0.00,,,0.00,Wunderground v.1.15,2013-04-01 06:40:00,
2013-03-31 23:48:00,52.2,47.2,29.94,NW,307,0.0,1.0,83,0.00,,,0.00,Wunderground v.1.15,2013-04-01 06:48:00,
2013-03-31 23:54:00,51.9,46.9,29.95,NW,307,0.0,0.0,83,0.00,,,0.00,Wunderground v.1.15,2013-04-01 06:54:00,